カタログに戻る

HISPASAT 1A

運用中通信GEO
NORAD 22116·PAYLOAD·🇪🇸 Spain

打ち上げ Sep 10, 1992 から Guiana Space Centre

Loading…

TLE

最新Source: Space-Track

元期: Sep 13, 2026, 22:36 UTC

1 22116U 92060A   26256.94216950  .00000055  00000-0  00000-0 0  9996
2 22116  14.2539   9.5883 0003899 270.5860  95.1080  0.99314624120383

AllMySatでHISPASAT 1Aをリアルタイム追跡

Download on the App Store